Location: Staunton
(38.1490°N, 79.0720°W)
Time: 16:20:42
(UTC-05:00)

ISS - Pass Details

Date: 17 January 2018
Orbit: 401 x 407 km, 51.6° (Epoch: 17 January)

Event Time Altitude Azimuth Distance (km) Brightness Sun altitude
Exits shadow 05:30:34 31° 148° (SSE) 729 -2.2 -23.3°
Drops below altitude 10° 05:32:27 10° 139° (SE) 1,453 -0.4 -22.9°
Sets 05:34:31 0° 137° (SE) 2,309 0.8 -22.5°
